Regional Weather Roundup
Issued by NWS

Home | Current Version | Previous Version | Graphics & Text | Print | Product List | Glossary On
Versions: 1 2 3 4 5 6 7 8 9 10 11 12 13 14 15 16 17 18 19 20 21 22 23 24 25 26 27 28 29 30 31 32 33 34 35 36 37 38 39 40 41 42 43 44 45 46 47 48 49 50
190
ASUS45 KSLC 211110
RWRUT

UTAH REGIONAL WEATHER ROUNDUP
NATIONAL WEATHER SERVICE SALT LAKE CITY UT
500 AM MDT FRI JUL 21 2017

UTZ001>011-023>025-211200-

NORTHERN UTAH

CITY           SKY/WX    TMP DP  RH WIND       PRES   REMARKS
BRIGHAM CITY   CLOUDY    75  44  33 NW3       30.03R
HILL AFB       MOCLDY    75  52  44 SE10      30.05R
LOGAN          CLOUDY    68  58  70 N3        30.06R
OGDEN          MOCLDY    76  53  44 S7        30.02R
SALT LAKE CITY CLOUDY    80  54  40 SE8       30.01R
TOOELE VALLEY  MOCLDY    68  55  64 S8        30.03R
WENDOVER       PTCLDY    73  38  27 NW6       30.04R
HEBER CITY     MOCLDY    63  52  67 CALM      30.13R
WEST JORDAN    CLOUDY    72  62  71 SE6       30.05S

$$

UTZ011>015-024>027-211200-

CENTRAL/NORTHEAST UTAH

CITY           SKY/WX    TMP DP  RH WIND       PRES   REMARKS
PROVO AIRPORT  CLOUDY    71  56  58 SE8       30.08R
MOAB/CANYONLAN MOCLDY    69  66  90 CALM      30.07S
DELTA          MOCLDY    70  50  49 S9        30.07R
PRICE          MOCLDY    65  51  60 NE5       30.18S
ROOSEVELT      PTCLDY    64  54  68 CALM      30.15S
VERNAL         CLOUDY    68  56  65 NW7       30.14S

$$

UTZ013>016-019>022-027-211200-

SOUTHERN UTAH

CITY           SKY/WX    TMP DP  RH WIND       PRES   REMARKS
BRYCE CANYON   CLEAR     53  49  86 W3        30.33S
CEDAR CITY     CLEAR     66  46  48 SE8       30.16F
MILFORD        PTCLDY    69  53  56 SW10      30.09F
ST GEORGE      PTSUNNY   79  52  38 S5        29.97R
HANKSVILLE     MOCLDY    68  57  68 SE7       30.09R
BLANDING       CLOUDY    63  60  91 NW3       30.28S

$$

REGIONAL REPORTS     COLORADO/ARIZONA

CITY           SKY/WX    TMP DP  RH WIND       PRES   REMARKS
CRAIG, CO      CLEAR     59  52  77 S5        30.24S
GRAND JUNCTION PTCLDY    71  57  61 E7        30.12R
RIFLE, CO      CLOUDY    64  57  78 W3        30.20R
MONTROSE, CO   CLOUDY    63  50  62 SE9       30.22R
CORTEZ, CO     CLOUDY    58  55  90 NE5       30.21S
COLORADO CITY    N/A     64  59  82 CALM      30.15S
PAGE, AZ       CLOUDY    77  59  53 SW7       30.07S
GRAND CANYON   MOCLDY    61  57  87 NE7       30.28R
KINGMAN, AZ    CLEAR     75  59  57 SE12      30.03S
FLAGSTAFF, AZ  CLOUDY    58  55  90 CALM      30.30S

$$

REGIONAL REPORTS    NEVADA/IDAHO/WYOMING

CITY           SKY/WX    TMP DP  RH WIND       PRES   REMARKS
LAS VEGAS, NV  MOCLDY    87  43  21 S8        29.87S
ELY, NY        CLEAR     55  45  68 E6        30.20R
ELKO, NV       CLEAR     51  27  39 CALM      30.14R
POCATELLO, ID  CLEAR     64  37  36 SW7       30.08R
BURLEY, ID     CLEAR     58  43  57 CALM      30.06R
FORT BRIDGER,    N/A     61  55  81 SW3       30.26R
EVANSTON, WY   CLOUDY    64  51  62 NW5       30.24R
ROCK SPRINGS,  CLOUDY    62  51  67 CALM      30.21F
KEMMERER, WY     N/A     55  50  82 NW9       30.26R

$$




USA.gov is the U.S. government's official web portal to all federal, state and local government web resources and services.